Time,TemperatureF,DewpointF,PressureIn,WindDirection,WindDirectionDegrees,WindSpeedMPH,WindSpeedGustMPH,Humidity,HourlyPrecipIn,Conditions,Clouds,dailyrainin,SoftwareType,DateUTC
2015-04-18 00:02:00,65.4,44.1,29.97,SW,228,2.0,4.0,46,0.00,,SCT250,0.00,VWS V15.00,2015-04-18 05:02:00,
2015-04-18 00:07:00,65.3,44.0,29.97,SW,229,2.0,4.0,46,0.00,,SCT250,0.00,VWS V15.00,2015-04-18 05:07:00,
2015-04-18 00:17:00,65.0,44.3,29.98,West,260,2.0,3.0,47,0.00,,SCT250,0.00,VWS V15.00,2015-04-18 05:17:00,
2015-04-18 00:22:00,65.0,44.3,29.98,WSW,256,3.0,4.0,47,0.00,,SCT250,0.00,VWS V15.00,2015-04-18 05:22:00,
2015-04-18 00:27:00,65.0,44.3,29.98,West,275,2.0,4.0,47,0.00,,SCT250,0.00,VWS V15.00,2015-04-18 05:27:00,
2015-04-18 00:32:00,65.0,44.3,29.98,West,273,2.0,3.0,47,0.00,,SCT250,0.00,VWS V15.00,2015-04-18 05:32:00,
2015-04-18 00:37:00,65.0,44.3,29.98,West,279,3.0,3.0,47,0.00,,CLR,0.00,VWS V15.00,2015-04-18 05:37:00,
2015-04-18 00:42:00,65.0,44.3,29.98,West,279,3.0,3.0,47,0.00,,CLR,0.00,VWS V15.00,2015-04-18 05:42:00,
2015-04-18 00:47:00,65.0,44.3,29.98,West,279,2.0,3.0,47,0.00,,CLR,0.00,VWS V15.00,2015-04-18 05:47:00,
2015-04-18 00:52:00,65.1,44.4,29.98,West,279,1.0,2.0,47,0.00,,CLR,0.00,VWS V15.00,2015-04-18 05:52:00,
2015-04-18 00:57:00,65.2,44.5,29.98,West,279,1.0,2.0,47,0.00,,CLR,0.00,VWS V15.00,2015-04-18 05:57:00,
2015-04-18 01:02:00,65.2,44.5,29.98,West,279,2.0,2.0,47,0.00,,CLR,0.00,VWS V15.00,2015-04-18 06:02:00,
2015-04-18 01:07:00,65.2,43.9,29.98,West,279,2.0,3.0,46,0.00,,CLR,0.00,VWS V15.00,2015-04-18 06:07:00,
2015-04-18 01:12:00,65.2,44.5,29.98,West,279,1.0,3.0,47,0.00,,CLR,0.00,VWS V15.00,2015-04-18 06:12:00,
2015-04-18 01:17:00,64.9,44.2,29.98,West,265,0.0,3.0,47,0.00,,CLR,0.00,VWS V15.00,2015-04-18 06:17:00,
2015-04-18 01:22:00,64.6,44.5,29.98,West,268,1.0,3.0,48,0.00,,CLR,0.00,VWS V15.00,2015-04-18 06:22:00,
2015-04-18 01:27:00,64.2,44.1,29.98,West,281,2.0,4.0,48,0.00,,CLR,0.00,VWS V15.00,2015-04-18 06:27:00,
2015-04-18 01:32:00,64.0,43.9,29.98,West,281,2.0,3.0,48,0.00,,CLR,0.00,VWS V15.00,2015-04-18 06:32:00,
2015-04-18 01:37:00,64.0,43.9,29.98,West,281,2.0,3.0,48,0.00,,CLR,0.00,VWS V15.00,2015-04-18 06:37:00,
2015-04-18 01:42:00,63.9,44.4,29.98,West,281,2.0,2.0,49,0.00,,CLR,0.00,VWS V15.00,2015-04-18 06:42:00,
2015-04-18 01:47:00,63.7,44.2,29.98,NNW,331,3.0,3.0,49,0.00,,CLR,0.00,VWS V15.00,2015-04-18 06:47:00,
2015-04-18 01:52:00,63.3,44.4,29.98,NNW,331,2.0,3.0,50,0.00,,CLR,0.00,VWS V15.00,2015-04-18 06:52:00,
2015-04-18 01:57:00,63.0,44.1,29.98,NNW,331,2.0,3.0,50,0.00,,CLR,0.00,VWS V15.00,2015-04-18 06:57:00,
2015-04-18 02:02:00,62.8,44.4,29.98,NNW,331,1.0,3.0,51,0.00,,CLR,0.00,VWS V15.00,2015-04-18 07:02:00,
2015-04-18 02:07:00,62.6,44.2,29.98,NNW,331,2.0,3.0,51,0.00,,CLR,0.00,VWS V15.00,2015-04-18 07:07:00,
2015-04-18 02:12:00,62.2,44.4,29.98,NNW,335,2.0,3.0,52,0.00,,CLR,0.00,VWS V15.00,2015-04-18 07:12:00,
2015-04-18 02:17:00,62.0,44.2,29.98,NNW,335,2.0,3.0,52,0.00,,CLR,0.00,VWS V15.00,2015-04-18 07:17:00,
2015-04-18 02:22:00,61.8,44.5,29.99,NNW,335,0.0,2.0,53,0.00,,CLR,0.00,VWS V15.00,2015-04-18 07:22:00,
2015-04-18 02:27:00,61.6,44.3,29.99,NNW,335,0.0,2.0,53,0.00,,CLR,0.00,VWS V15.00,2015-04-18 07:27:00,
2015-04-18 02:32:00,61.2,44.0,29.99,NNW,335,0.0,0.0,53,0.00,,CLR,0.00,VWS V15.00,2015-04-18 07:32:00,
2015-04-18 02:37:00,60.9,44.2,29.99,NNW,335,0.0,0.0,54,0.00,,CLR,0.00,VWS V15.00,2015-04-18 07:37:00,
2015-04-18 02:42:00,60.5,44.3,29.99,NNW,335,0.0,0.0,55,0.00,,CLR,0.00,VWS V15.00,2015-04-18 07:42:00,
2015-04-18 02:52:00,60.1,44.4,29.99,NNW,348,2.0,2.0,56,0.00,,CLR,0.00,VWS V15.00,2015-04-18 07:52:00,
2015-04-18 02:57:00,60.1,44.8,29.99,NNW,348,1.0,2.0,57,0.00,,CLR,0.00,VWS V15.00,2015-04-18 07:57:00,
2015-04-18 03:02:00,60.0,44.7,29.99,NNW,348,0.0,1.0,57,0.00,,CLR,0.00,VWS V15.00,2015-04-18 08:02:00,
2015-04-18 03:07:00,60.0,44.7,29.99,NNW,348,0.0,1.0,57,0.00,,CLR,0.00,VWS V15.00,2015-04-18 08:07:00,
2015-04-18 03:12:00,59.8,44.5,29.99,NNW,348,1.0,2.0,57,0.00,,CLR,0.00,VWS V15.00,2015-04-18 08:12:00,
2015-04-18 03:17:00,59.6,44.4,29.99,NNW,348,0.0,2.0,57,0.00,,CLR,0.00,VWS V15.00,2015-04-18 08:17:00,
2015-04-18 03:22:00,59.4,44.6,29.99,NNW,348,0.0,0.0,58,0.00,,CLR,0.00,VWS V15.00,2015-04-18 08:22:00,
2015-04-18 03:27:00,59.2,44.5,29.99,NNW,348,0.0,0.0,58,0.00,,CLR,0.00,VWS V15.00,2015-04-18 08:27:00,
2015-04-18 03:32:00,59.1,44.3,29.99,NNW,348,0.0,0.0,58,0.00,,CLR,0.00,VWS V15.00,2015-04-18 08:32:00,
2015-04-18 03:37:00,59.1,44.3,29.99,NNW,348,0.0,0.0,58,0.00,,CLR,0.00,VWS V15.00,2015-04-18 08:37:00,
2015-04-18 03:42:00,59.2,44.5,29.99,NNW,348,0.0,0.0,58,0.00,,CLR,0.00,VWS V15.00,2015-04-18 08:42:00,
2015-04-18 03:47:00,59.2,44.0,29.99,NNW,348,0.0,0.0,57,0.00,,CLR,0.00,VWS V15.00,2015-04-18 08:47:00,
2015-04-18 03:52:00,59.2,44.0,29.99,NNW,348,0.0,0.0,57,0.00,,CLR,0.00,VWS V15.00,2015-04-18 08:52:00,
2015-04-18 03:57:00,59.1,43.9,30.00,NNW,348,0.0,0.0,57,0.00,,CLR,0.00,VWS V15.00,2015-04-18 08:57:00,
2015-04-18 04:02:00,59.0,44.3,30.00,NNW,348,0.0,0.0,58,0.00,,CLR,0.00,VWS V15.00,2015-04-18 09:02:00,
2015-04-18 04:07:00,58.9,44.2,30.00,NNW,348,0.0,0.0,58,0.00,,CLR,0.00,VWS V15.00,2015-04-18 09:07:00,
2015-04-18 04:12:00,58.8,44.1,30.00,NNW,348,0.0,0.0,58,0.00,,CLR,0.00,VWS V15.00,2015-04-18 09:12:00,
2015-04-18 04:17:00,58.7,44.0,30.00,NNW,348,0.0,0.0,58,0.00,,CLR,0.00,VWS V15.00,2015-04-18 09:17:00,
2015-04-18 04:27:00,58.7,44.4,30.00,NNW,348,0.0,0.0,59,0.00,,CLR,0.00,VWS V15.00,2015-04-18 09:27:00,
2015-04-18 04:32:00,58.7,44.4,30.00,NNW,348,0.0,0.0,59,0.00,,CLR,0.00,VWS V15.00,2015-04-18 09:32:00,
2015-04-18 04:37:00,58.8,44.5,29.99,NNW,348,0.0,0.0,59,0.00,,CLR,0.00,VWS V15.00,2015-04-18 09:37:00,
2015-04-18 04:42:00,58.7,44.4,30.00,North,351,1.0,1.0,59,0.00,,CLR,0.00,VWS V15.00,2015-04-18 09:42:00,
2015-04-18 04:47:00,58.5,44.2,30.00,North,355,2.0,3.0,59,0.00,,CLR,0.00,VWS V15.00,2015-04-18 09:47:00,
2015-04-18 04:52:00,58.4,44.1,30.00,North,355,2.0,3.0,59,0.00,,CLR,0.00,VWS V15.00,2015-04-18 09:52:00,
2015-04-18 04:57:00,58.4,44.6,30.00,North,355,2.0,3.0,60,0.00,,CLR,0.00,VWS V15.00,2015-04-18 09:57:00,
2015-04-18 05:02:00,58.3,44.5,29.99,North,355,1.0,3.0,60,0.00,,CLR,0.00,VWS V15.00,2015-04-18 10:02:00,
2015-04-18 05:07:00,58.2,44.0,30.00,North,355,0.0,3.0,59,0.00,,CLR,0.00,VWS V15.00,2015-04-18 10:07:00,
2015-04-18 05:12:00,58.1,44.3,30.00,North,355,0.0,0.0,60,0.00,,CLR,0.00,VWS V15.00,2015-04-18 10:12:00,
2015-04-18 05:17:00,57.8,44.0,30.00,North,355,0.0,0.0,60,0.00,,CLR,0.00,VWS V15.00,2015-04-18 10:17:00,
2015-04-18 05:22:00,57.3,44.0,30.00,North,355,0.0,0.0,61,0.00,,CLR,0.00,VWS V15.00,2015-04-18 10:22:00,
2015-04-18 05:27:00,56.9,44.0,30.00,North,355,0.0,0.0,62,0.00,,CLR,0.00,VWS V15.00,2015-04-18 10:27:00,
2015-04-18 05:32:00,56.3,43.9,30.00,North,355,2.0,3.0,63,0.00,,CLR,0.00,VWS V15.00,2015-04-18 10:32:00,
2015-04-18 05:37:00,55.7,43.7,30.00,North,355,2.0,3.0,64,0.00,,CLR,0.00,VWS V15.00,2015-04-18 10:37:00,
2015-04-18 05:42:00,55.2,43.7,30.00,North,355,2.0,2.0,65,0.00,,CLR,0.00,VWS V15.00,2015-04-18 10:42:00,
2015-04-18 05:47:00,54.9,43.8,30.01,North,355,0.0,2.0,66,0.00,,CLR,0.00,VWS V15.00,2015-04-18 10:47:00,
2015-04-18 05:57:00,54.8,43.7,30.01,North,355,2.0,2.0,66,0.00,,CLR,0.00,VWS V15.00,2015-04-18 10:57:00,
2015-04-18 06:02:00,55.0,43.9,30.01,North,355,2.0,3.0,66,0.00,,CLR,0.00,VWS V15.00,2015-04-18 11:02:00,
2015-04-18 06:07:00,55.1,44.0,30.01,North,355,1.0,3.0,66,0.00,,CLR,0.00,VWS V15.00,2015-04-18 11:07:00,
2015-04-18 06:12:00,55.2,44.0,30.01,North,355,0.0,2.0,66,0.00,,CLR,0.00,VWS V15.00,2015-04-18 11:12:00,
2015-04-18 06:17:00,55.3,43.8,30.01,North,355,0.0,2.0,65,0.00,,CLR,0.00,VWS V15.00,2015-04-18 11:17:00,
2015-04-18 06:22:00,55.3,44.2,30.01,North,355,0.0,0.0,66,0.00,,CLR,0.00,VWS V15.00,2015-04-18 11:22:00,
2015-04-18 06:27:00,55.1,44.0,30.01,North,355,0.0,0.0,66,0.00,,CLR,0.00,VWS V15.00,2015-04-18 11:27:00,
2015-04-18 06:32:00,54.4,43.7,30.01,North,355,0.0,0.0,67,0.00,,CLR,0.00,VWS V15.00,2015-04-18 11:32:00,
2015-04-18 06:37:00,53.7,43.8,30.01,North,355,0.0,0.0,69,0.00,,BKN230,0.00,VWS V15.00,2015-04-18 11:37:00,
2015-04-18 06:42:00,53.4,43.5,30.02,North,355,0.0,0.0,69,0.00,,BKN230,0.00,VWS V15.00,2015-04-18 11:42:00,
2015-04-18 06:47:00,53.2,43.7,30.02,North,355,1.0,1.0,70,0.00,,BKN230,0.00,VWS V15.00,2015-04-18 11:47:00,
2015-04-18 06:52:00,53.2,42.9,30.02,East,84,0.0,4.0,68,0.00,,BKN230,0.00,VWS V15.00,2015-04-18 11:52:00,
2015-04-18 06:57:00,53.4,43.1,30.02,East,84,0.0,4.0,68,0.00,,BKN230,0.00,VWS V15.00,2015-04-18 11:57:00,
2015-04-18 07:02:00,53.6,44.4,30.02,ENE,78,0.0,0.0,71,0.00,,BKN230,0.00,VWS V15.00,2015-04-18 12:02:00,
2015-04-18 07:07:00,53.6,43.7,30.03,ENE,78,0.0,0.0,69,0.00,,BKN230,0.00,VWS V15.00,2015-04-18 12:07:00,
2015-04-18 07:12:00,53.7,44.5,30.03,NNE,24,4.0,4.0,71,0.00,,BKN230,0.00,VWS V15.00,2015-04-18 12:12:00,
2015-04-18 07:17:00,53.0,44.2,30.03,NE,35,3.0,5.0,72,0.00,,BKN230,0.00,VWS V15.00,2015-04-18 12:17:00,
2015-04-18 07:22:00,52.8,44.0,30.03,NNE,32,3.0,5.0,72,0.00,,BKN230,0.00,VWS V15.00,2015-04-18 12:22:00,
2015-04-18 07:27:00,53.2,44.4,30.04,NE,36,5.0,5.0,72,0.00,,BKN230,0.00,VWS V15.00,2015-04-18 12:27:00,
2015-04-18 07:32:00,54.0,44.8,30.04,NE,35,3.0,5.0,71,0.00,,BKN230,0.00,VWS V15.00,2015-04-18 12:32:00,
2015-04-18 07:42:00,55.0,44.3,30.04,NE,37,5.0,6.0,67,0.00,,BKN230,0.00,VWS V15.00,2015-04-18 12:42:00,
2015-04-18 07:47:00,55.3,44.2,30.04,NE,40,3.0,6.0,66,0.00,,BKN230,0.00,VWS V15.00,2015-04-18 12:47:00,
2015-04-18 07:52:00,55.7,43.7,30.04,NE,40,5.0,5.0,64,0.00,,BKN250,0.00,VWS V15.00,2015-04-18 12:52:00,
2015-04-18 07:57:00,56.0,42.8,30.03,NE,43,6.0,7.0,61,0.00,,BKN250,0.00,VWS V15.00,2015-04-18 12:57:00,
2015-04-18 08:02:00,56.5,42.8,30.03,NE,44,3.0,9.0,60,0.00,,BKN250,0.00,VWS V15.00,2015-04-18 13:02:00,
2015-04-18 08:07:00,56.8,42.6,30.03,NE,46,5.0,10.0,59,0.00,,BKN250,0.00,VWS V15.00,2015-04-18 13:07:00,
2015-04-18 08:12:00,57.0,42.4,30.03,NE,39,6.0,9.0,58,0.00,,BKN250,0.00,VWS V15.00,2015-04-18 13:12:00,
2015-04-18 08:17:00,57.2,42.6,30.03,NE,36,5.0,10.0,58,0.00,,BKN250,0.00,VWS V15.00,2015-04-18 13:17:00,
2015-04-18 08:22:00,57.3,41.8,30.03,NE,42,7.0,12.0,56,0.00,,BKN250,0.00,VWS V15.00,2015-04-18 13:22:00,
2015-04-18 08:27:00,57.2,41.2,30.04,ENE,59,7.0,12.0,55,0.00,,BKN250,0.00,VWS V15.00,2015-04-18 13:27:00,
2015-04-18 08:32:00,57.2,41.7,30.04,NE,49,4.0,14.0,56,0.00,,BKN250,0.00,VWS V15.00,2015-04-18 13:32:00,
2015-04-18 08:37:00,57.3,41.8,30.04,NE,38,5.0,14.0,56,0.00,,BKN250,0.00,VWS V15.00,2015-04-18 13:37:00,
2015-04-18 08:42:00,57.4,41.4,30.04,ENE,60,3.0,9.0,55,0.00,,BKN250,0.00,VWS V15.00,2015-04-18 13:42:00,
2015-04-18 08:47:00,57.6,41.6,30.04,NNE,24,2.0,12.0,55,0.00,,BKN250,0.00,VWS V15.00,2015-04-18 13:47:00,
2015-04-18 08:52:00,57.8,41.3,30.04,NE,53,3.0,7.0,54,0.00,,BKN250,0.00,VWS V15.00,2015-04-18 13:52:00,
2015-04-18 08:57:00,57.9,42.3,30.04,NE,35,6.0,7.0,56,0.00,,BKN250,0.00,VWS V15.00,2015-04-18 13:57:00,
2015-04-18 09:02:00,57.9,41.4,30.05,NNE,32,9.0,10.0,54,0.00,,BKN250,0.00,VWS V15.00,2015-04-18 14:02:00,
2015-04-18 09:07:00,58.0,41.9,30.05,ENE,64,5.0,10.0,55,0.00,,BKN250,0.00,VWS V15.00,2015-04-18 14:07:00,
2015-04-18 09:12:00,58.1,41.6,30.05,ENE,69,2.0,9.0,54,0.00,,BKN250,0.00,VWS V15.00,2015-04-18 14:12:00,
2015-04-18 09:17:00,58.6,42.5,30.05,ESE,107,2.0,9.0,55,0.00,,BKN250,0.00,VWS V15.00,2015-04-18 14:17:00,
2015-04-18 09:22:00,58.9,41.3,30.05,SE,135,5.0,9.0,52,0.00,,BKN250,0.00,VWS V15.00,2015-04-18 14:22:00,